Location: Derby
(52.9213°N, 1.4761°W)
Time: 16:46:49
(UTC+01:00)

Vanguard 2 Rocket - Pass Details

Date: 20 May 2025
Orbit: 554 x 3293 km, 32.9° (Epoch: 14 June)

Event Time Altitude Azimuth Distance (km) Brightness Sun altitude
Rises 01:45:51 0° 243° (WSW) 6,822 11.0 -16.5°
Reaches altitude 10° 01:51:46 10° 234° (SW) 5,426 10.4 -16.3°
Maximum altitude 02:03:06 27° 185° (S) 3,261 9.1 -15.9°
Drops below altitude 10° 02:10:47 10° 133° (SE) 3,588 9.7 -15.6°
Sets 02:13:46 0° 120° (ESE) 4,214 10.2 -15.5°
